map of SUA home
SUA - Airport
Location
City:  Stuart, Florida, United States
Name:Witham Field
ICAO:KSUA
IATA:SUA
FAA LID:SUA

Details
Type:Airport (Airfield)
Use:Public/Civil
Latitude:2710'54"N (27.181694)
Longitude:8013'17"W (-80.221305)
Datum:WGS 1984
Elevation:16 ft (5 m)
Variation:6.91W (WMM2015 magnetic declination)
-0.09 annual change
Runways:3
Longest:5828 × 100 ft (1776 × 30.5 m), paved

Time
Time Zone:UTC-5 (DST-4)
Local Time:

Weather
METAR:KSUA 251950Z 11013G20KT 7SM FEW035 29/18 A3015
TAF:KSUA 251742Z 2518/2618 13011KT P6SM SCT035
FM260200 VRB03KT P6SM FEW030
FM261400 18008KT P6SM FEW035

Related Locations
Nearby:
Farthest:USL: 11602 mi / 18671 km
Useless Loop, WA, AU

Find:

   beyond  
but within

Other Information
Maps:
NOTAMs:
Links:
Sources:

  
flag of United States
flag of Florida
  

Airport Diagram

Airport diagram for SUA

Airport diagram PDF

Sectional Chart

Flight Planning
at skyvector.com

Satellite Image

Google Maps Satellite view

 

Copyright © 2004-2018 Karl L. Swartz. All rights reserved.
The Great Circle Mapper name and logo are trademarks of the Great Circle Mapper.
All other trademarks mentioned herein belong to their respective owners.
Please see credits for attibutions and further copyright information.

  Follow gcmap on Facebook Follow gcmap on Twitter Follow gcmap on Google+ GCmap on LinkedIn

hCard Microformat

Geo Microformat